This is the latest recevied weather packets stored in our database for station/object K4DFD-13. If no packets are shown the sender has not sent any weather packets the latest 10 day(s).
| Time | Temp. | Humidity | Pressure | Rain* | Wind** | Luminosity | Snow |
|---|---|---|---|---|---|---|---|
| 1777688868 | 11.11° C | 70% | 1014.5 hPa | 0 mm | - | - | - |
| 1777688578 | 11.67° C | 69% | 1014.4 hPa | 0 mm | - | - | - |
| 1777688257 | 11.67° C | 69% | 1014.3 hPa | 0 mm | - | - | - |
| 1777687956 | 11.67° C | 68% | 1014.3 hPa | 0 mm | - | - | - |
| 1777687656 | 11.67° C | 67% | 1013.9 hPa | 0 mm | - | - | - |
| 1777687355 | 12.22° C | 67% | 1013.9 hPa | 0 mm | - | - | - |
| 1777687055 | 12.22° C | 65% | 1013.7 hPa | 0 mm | - | - | - |
| 1777686755 | 12.22° C | 64% | 1013.4 hPa | 0 mm | - | - | - |
| 1777686455 | 12.78° C | 63% | 1013.2 hPa | 0 mm | - | - | - |
| 1777686154 | 12.78° C | 62% | 1013.1 hPa | 0 mm | - | - | - |
| 1777685854 | 13.33° C | 61% | 1013 hPa | 0 mm | - | - | - |
| 1777685553 | 13.33° C | 59% | 1013 hPa | 0 mm | - | - | - |
| 1777685253 | 13.89° C | 57% | 1012.9 hPa | 0 mm | - | - | - |
| 1777684953 | 14.44° C | 54% | 1012.7 hPa | 0 mm | - | - | - |
| 1777684652 | 15° C | 49% | 1012.7 hPa | 0 mm | - | - | - |
| 1777684352 | 15° C | 48% | 1012.4 hPa | 0 mm | - | - | - |
| 1777684051 | 15° C | 46% | 1012.2 hPa | 0 mm | - | - | - |
| 1777683751 | 15° C | 47% | 1012.1 hPa | 0 mm | - | - | - |
| 1777683451 | 15° C | 47% | 1012.1 hPa | 0 mm | - | - | - |
| 1777683151 | 15° C | 50% | 1012 hPa | 0 mm | - | - | - |
| 1777682850 | 15.56° C | 49% | 1011.9 hPa | 0 mm | - | - | - |
| 1777682550 | 15.56° C | 46% | 1011.8 hPa | 0 mm | - | - | - |
| 1777682250 | 15.56° C | 46% | 1011.7 hPa | 0 mm | - | - | - |
| 1777681949 | 16.11° C | 43% | 1011.6 hPa | 0 mm | - | - | - |
| 1777681649 | 16.11° C | 43% | 1011.5 hPa | 0 mm | - | - | - |
* Rain latest hour (hover to see other rain measurements)
** Current wind speed in m/s (hover to see current wind gust speed)